| time (UTC) | temp C | wind direction | speed KPH | gust KPH | rain 1hr cm | rain 24hr cm | rain mn cm | humidity % | barometer mb |
| 20260508073004 | 11 | 120 | 0.0 | 0.0 | 0.00 | 0.00 | 0.00 | 93 | 1014.7 |
| 20260508072935 | 11 | 0 | 0.0 | 0.0 | 0.00 | 0.00 | 0.00 | 93 | 1014.2 |
| 20260508072035 | 11 | 0 | 0.0 | 0.0 | 0.00 | 0.00 | 0.00 | 93 | 1014.3 |
| 20260508071608 | 11 | 120 | 0.0 | 0.0 | 0.00 | 0.00 | 0.00 | 93 | 1014.6 |
| 20260508070235 | 12 | 0 | 0.0 | 0.0 | 0.00 | 0.00 | 0.00 | 93 | 1014.3 |
| 20260508070002 | 11 | 120 | 0.0 | 0.0 | 0.00 | 0.00 | 0.00 | 93 | 1014.8 |
| 20260508064509 | 11 | 120 | 0.0 | 0.0 | 0.00 | 0.00 | 0.00 | 93 | 1015.1 |
| 20260508064435 | 12 | 0 | 0.0 | 0.0 | 0.00 | 0.00 | 0.00 | 93 | 1014.8 |
| 20260508063012 | 12 | 120 | 0.0 | 0.0 | 0.00 | 0.00 | 0.00 | 93 | 1015.1 |
| 20260508062635 | 12 | 0 | 0.0 | 0.0 | 0.00 | 0.00 | 0.00 | 92 | 1014.8 |
| 20260508061735 | 12 | 0 | 0.0 | 0.0 | 0.00 | 0.00 | 0.00 | 92 | 1014.6 |
| 20260508061603 | 12 | 120 | 0.0 | 0.0 | 0.00 | 0.00 | 0.00 | 92 | 1015.0 |
| 20260508060835 | 12 | 0 | 0.0 | 0.0 | 0.00 | 0.00 | 0.00 | 92 | 1014.8 |
| 20260508060008 | 12 | 120 | 0.0 | 0.0 | 0.00 | 0.00 | 0.00 | 92 | 1015.0 |
| 20260508055035 | 12 | 0 | 0.0 | 0.0 | 0.00 | 0.00 | 0.00 | 92 | 1014.6 |
| 20260508054603 | 12 | 120 | 0.0 | 0.0 | 0.00 | 0.00 | 0.00 | 92 | 1015.0 |
| 20260508053235 | 12 | 0 | 0.0 | 0.0 | 0.00 | 0.00 | 0.00 | 91 | 1014.6 |
| 20260508053005 | 12 | 120 | 0.0 | 0.0 | 0.00 | 0.00 | 0.00 | 91 | 1014.9 |
| 20260508052335 | 12 | 0 | 0.0 | 0.0 | 0.00 | 0.00 | 0.00 | 91 | 1014.6 |
| 20260508051604 | 12 | 120 | 0.0 | 0.0 | 0.00 | 0.00 | 0.00 | 91 | 1015.2 |
| 20260508051435 | 13 | 0 | 0.0 | 0.0 | 0.00 | 0.00 | 0.00 | 91 | 1014.8 |
| 20260508050535 | 13 | 0 | 0.0 | 0.0 | 0.00 | 0.00 | 0.00 | 91 | 1014.6 |
| 20260508050009 | 12 | 120 | 0.0 | 0.0 | 0.00 | 0.00 | 0.00 | 91 | 1014.9 |
| 20260508044735 | 13 | 0 | 0.0 | 0.0 | 0.00 | 0.00 | 0.00 | 90 | 1014.8 |
| 20260508044503 | 13 | 120 | 0.0 | 0.0 | 0.00 | 0.00 | 0.00 | 90 | 1015.1 |
| 20260508043835 | 13 | 0 | 0.0 | 0.0 | 0.00 | 0.00 | 0.00 | 90 | 1014.8 |
| 20260508043002 | 13 | 120 | 0.0 | 0.0 | 0.00 | 0.00 | 0.00 | 90 | 1015.2 |
| 20260508042035 | 13 | 0 | 0.0 | 0.0 | 0.00 | 0.00 | 0.00 | 89 | 1014.9 |
| 20260508041602 | 13 | 120 | 0.0 | 0.0 | 0.00 | 0.00 | 0.00 | 89 | 1015.2 |
| 20260508040235 | 13 | 0 | 0.0 | 0.0 | 0.00 | 0.00 | 0.00 | 89 | 1015.0 |
| 20260508040105 | 13 | 120 | 0.0 | 0.0 | 0.00 | 0.00 | 0.00 | 89 | 1015.4 |
| 20260508035335 | 13 | 0 | 0.0 | 0.0 | 0.00 | 0.00 | 0.00 | 89 | 1014.8 |
| 20260508034504 | 13 | 120 | 0.0 | 0.0 | 0.00 | 0.00 | 0.00 | 88 | 1015.1 |
| 20260508033535 | 14 | 0 | 0.0 | 0.0 | 0.00 | 0.00 | 0.00 | 88 | 1014.9 |
| 20260508033105 | 14 | 120 | 0.0 | 0.0 | 0.00 | 0.00 | 0.00 | 88 | 1015.2 |
| 20260508032635 | 14 | 0 | 0.0 | 0.0 | 0.00 | 0.00 | 0.00 | 87 | 1014.7 |
| 20260508031735 | 14 | 0 | 0.0 | 0.0 | 0.00 | 0.00 | 0.00 | 87 | 1014.6 |
| 20260508031604 | 14 | 120 | 0.0 | 0.0 | 0.00 | 0.00 | 0.00 | 87 | 1014.9 |
| 20260508030835 | 15 | 0 | 0.0 | 0.0 | 0.00 | 0.00 | 0.00 | 86 | 1014.6 |
| 20260508030105 | 15 | 120 | 0.0 | 0.0 | 0.00 | 0.00 | 0.00 | 86 | 1015.0 |
| 20260508025935 | 15 | 0 | 0.0 | 0.0 | 0.00 | 0.00 | 0.00 | 85 | 1014.6 |
| 20260508025035 | 15 | 0 | 0.0 | 0.0 | 0.00 | 0.00 | 0.00 | 85 | 1014.7 |
| 20260508024507 | 15 | 120 | 0.0 | 0.0 | 0.00 | 0.00 | 0.00 | 85 | 1015.0 |
| 20260508024135 | 15 | 0 | 0.0 | 0.0 | 0.00 | 0.00 | 0.00 | 85 | 1014.6 |
| 20260508023103 | 15 | 120 | 0.0 | 0.0 | 0.00 | 0.00 | 0.00 | 85 | 1014.7 |
| 20260508022335 | 15 | 0 | 0.0 | 0.0 | 0.00 | 0.00 | 0.00 | 84 | 1014.1 |
| 20260508021507 | 15 | 120 | 0.0 | 0.0 | 0.00 | 0.00 | 0.00 | 84 | 1014.5 |
| 20260508021435 | 15 | 0 | 0.0 | 0.0 | 0.00 | 0.00 | 0.00 | 84 | 1014.1 |
| 20260508020006 | 16 | 120 | 0.0 | 0.0 | 0.00 | 0.00 | 0.00 | 83 | 1014.6 |
| 20260508015635 | 16 | 0 | 0.0 | 0.0 | 0.00 | 0.00 | 0.00 | 83 | 1014.2 |
| 20260508014603 | 16 | 120 | 0.0 | 0.0 | 0.00 | 0.00 | 0.00 | 81 | 1014.6 |
| 20260508013835 | 16 | 120 | 0.0 | 1.6 | 0.00 | 0.00 | 0.00 | 81 | 1014.1 |
| 20260508013003 | 16 | 120 | 0.0 | 3.2 | 0.00 | 0.00 | 0.00 | 79 | 1014.4 |
| 20260508012935 | 17 | 120 | 0.0 | 3.2 | 0.00 | 0.00 | 0.00 | 79 | 1014.1 |
| 20260508012035 | 17 | 120 | 0.0 | 3.2 | 0.00 | 0.00 | 0.00 | 78 | 1014.1 |
| 20260508011603 | 17 | 120 | 0.0 | 1.6 | 0.00 | 0.00 | 0.00 | 77 | 1014.5 |
| 20260508010235 | 18 | 116 | 0.0 | 1.6 | 0.00 | 0.00 | 0.00 | 76 | 1014.0 |
| 20260508010106 | 18 | 120 | 0.0 | 1.6 | 0.00 | 0.00 | 0.00 | 75 | 1014.4 |
| 20260508005335 | 18 | 88 | 0.0 | 1.6 | 0.00 | 0.00 | 0.00 | 74 | 1013.9 |
| 20260508004604 | 18 | 125 | 0.0 | 1.6 | 0.00 | 0.00 | 0.00 | 72 | 1014.2 |
| 20260508004435 | 18 | 327 | 0.0 | 1.6 | 0.00 | 0.00 | 0.00 | 72 | 1013.8 |
| 20260508003535 | 19 | 0 | 0.0 | 0.0 | 0.00 | 0.00 | 0.00 | 73 | 1013.7 |
| 20260508003108 | 18 | 61 | 0.0 | 1.6 | 0.00 | 0.00 | 0.00 | 72 | 1014.0 |
| 20260508002634 | 19 | 321 | 0.0 | 1.6 | 0.00 | 0.00 | 0.00 | 72 | 1013.7 |
| 20260508001735 | 20 | 0 | 0.0 | 0.0 | 0.00 | 0.00 | 0.00 | 70 | 1013.8 |
| 20260508001504 | 19 | 355 | 0.0 | 0.0 | 0.00 | 0.00 | 0.00 | 71 | 1014.1 |
| 20260508000834 | 20 | 139 | 0.0 | 3.2 | 0.00 | 0.00 | 0.00 | 69 | 1013.8 |
| 20260508000104 | 20 | 109 | 0.0 | 3.2 | 0.00 | 0.00 | 0.00 | 68 | 1014.2 |
| 20260507235934 | 20 | 134 | 1.6 | 3.2 | 0.00 | 0.00 | 0.00 | 68 | 1013.8 |
| 20260507235035 | 20 | 133 | 1.6 | 4.8 | 0.00 | 0.00 | 0.00 | 67 | 1013.9 |
| 20260507234503 | 20 | 134 | 1.6 | 4.8 | 0.00 | 0.00 | 0.00 | 67 | 1014.4 |
| 20260507233234 | 20 | 177 | 1.6 | 4.8 | 0.00 | 0.00 | 0.00 | 67 | 1013.9 |
| 20260507233002 | 20 | 161 | 1.6 | 4.8 | 0.00 | 0.00 | 0.00 | 66 | 1014.3 |
| 20260507231502 | 20 | 180 | 1.6 | 6.4 | 0.00 | 0.00 | 0.00 | 63 | 1014.4 |
| 20260507230534 | 21 | 151 | 3.2 | 8.0 | 0.00 | 0.00 | 0.00 | 63 | 1013.9 |
| 20260507230008 | 21 | 158 | 3.2 | 8.0 | 0.00 | 0.05 | 0.00 | 63 | 1014.3 |
| 20260507225634 | 21 | 153 | 4.8 | 8.0 | 0.00 | 0.00 | 0.00 | 62 | 1014.0 |
| 20260507224734 | 21 | 138 | 4.8 | 9.7 | 0.00 | 0.00 | 0.00 | 62 | 1014.0 |
| 20260507224505 | 21 | 134 | 1.6 | 9.7 | 0.00 | 0.05 | 0.00 | 63 | 1014.3 |
| 20260507223834 | 21 | 154 | 6.4 | 9.7 | 0.00 | 0.00 | 0.00 | 61 | 1013.9 |
| 20260507223005 | 21 | 176 | 3.2 | 9.7 | 0.00 | 0.05 | 0.00 | 61 | 1014.6 |
| 20260507222934 | 21 | 151 | 4.8 | 9.7 | 0.00 | 0.00 | 0.00 | 61 | 1014.1 |
| 20260507222034 | 22 | 163 | 6.4 | 11.3 | 0.00 | 0.03 | 0.00 | 59 | 1014.1 |
| 20260507221603 | 22 | 153 | 4.8 | 11.3 | 0.00 | 0.05 | 0.00 | 59 | 1014.6 |
| 20260507221134 | 22 | 156 | 6.4 | 11.3 | 0.00 | 0.05 | 0.00 | 55 | 1014.1 |
| 20260507220235 | 23 | 158 | 3.2 | 6.4 | 0.00 | 0.05 | 0.00 | 51 | 1013.9 |
| 20260507215334 | 23 | 197 | 0.0 | 4.8 | 0.00 | 0.05 | 0.00 | 54 | 1014.0 |
| 20260507214608 | 22 | 236 | 0.0 | 3.2 | 0.00 | 0.05 | 0.00 | 51 | 1014.5 |
| 20260507214434 | 23 | 100 | 0.0 | 3.2 | 0.00 | 0.05 | 0.00 | 50 | 1014.1 |
| 20260507213534 | 23 | 67 | 1.6 | 4.8 | 0.00 | 0.05 | 0.00 | 49 | 1014.1 |
| 20260507213007 | 23 | 61 | 0.0 | 3.2 | 0.00 | 0.05 | 0.00 | 51 | 1014.6 |
| 20260507212634 | 23 | 60 | 1.6 | 4.8 | 0.00 | 0.05 | 0.00 | 52 | 1014.1 |
| 20260507211734 | 23 | 169 | 3.2 | 8.0 | 0.00 | 0.05 | 0.00 | 47 | 1014.1 |
| 20260507211616 | 23 | 40 | 1.6 | 8.0 | 0.00 | 0.05 | 0.00 | 48 | 1014.6 |
| 20260507210005 | 22 | 108 | 1.6 | 6.4 | 0.00 | 0.05 | 0.00 | 52 | 1014.8 |
| 20260507205934 | 23 | 96 | 3.2 | 8.0 | 0.00 | 0.05 | 0.00 | 51 | 1014.3 |
| 20260507205034 | 23 | 135 | 4.8 | 9.7 | 0.00 | 0.05 | 0.00 | 51 | 1014.4 |
| 20260507204607 | 23 | 153 | 3.2 | 9.7 | 0.00 | 0.05 | 0.00 | 54 | 1014.8 |
| 20260507204134 | 23 | 139 | 4.8 | 9.7 | 0.00 | 0.05 | 0.00 | 50 | 1014.6 |
| 20260507203005 | 22 | 104 | 1.6 | 8.0 | 0.00 | 0.05 | 0.00 | 52 | 1015.1 |
| 20260507202334 | 22 | 55 | 3.2 | 9.7 | 0.00 | 0.05 | 0.00 | 52 | 1014.6 |
| 20260507201506 | 22 | 325 | 0.0 | 9.7 | 0.00 | 0.05 | 0.00 | 55 | 1015.4 |
| 20260507201434 | 22 | 113 | 1.6 | 8.0 | 0.00 | 0.05 | 0.00 | 54 | 1015.0 |
| 20260507200111 | 22 | 28 | 1.6 | 9.7 | 0.00 | 0.05 | 0.00 | 52 | 1015.6 |
| 20260507195634 | 22 | 15 | 3.2 | 9.7 | 0.00 | 0.05 | 0.00 | 53 | 1015.1 |
| 20260507194506 | 21 | 88 | 1.6 | 8.0 | 0.00 | 0.05 | 0.00 | 58 | 1015.3 |
| 20260507193834 | 21 | 343 | 4.8 | 8.0 | 0.00 | 0.05 | 0.00 | 53 | 1015.0 |
| 20260507193105 | 21 | 360 | 3.2 | 11.3 | 0.00 | 0.05 | 0.00 | 54 | 1015.7 |
| 20260507192934 | 21 | 310 | 6.4 | 11.3 | 0.00 | 0.05 | 0.00 | 54 | 1015.3 |
| 20260507192034 | 21 | 343 | 4.8 | 9.7 | 0.00 | 0.05 | 0.00 | 52 | 1015.3 |
| 20260507191505 | 21 | 360 | 4.8 | 11.3 | 0.00 | 0.05 | 0.00 | 52 | 1015.9 |
| 20260507191134 | 21 | 242 | 3.2 | 11.3 | 0.00 | 0.05 | 0.00 | 53 | 1015.4 |
| 20260507190108 | 21 | 28 | 4.8 | 11.3 | 0.00 | 0.05 | 0.00 | 53 | 1015.9 |
| 20260507185334 | 21 | 91 | 6.4 | 12.9 | 0.00 | 0.05 | 0.00 | 55 | 1015.5 |
| 20260507184505 | 20 | 90 | 4.8 | 12.9 | 0.00 | 0.08 | 0.00 | 56 | 1016.3 |
| 20260507184434 | 21 | 340 | 4.8 | 11.3 | 0.00 | 0.05 | 0.00 | 56 | 1015.8 |
| 20260507183534 | 21 | 316 | 4.8 | 12.9 | 0.00 | 0.05 | 0.00 | 53 | 1015.9 |
| 20260507183107 | 21 | 278 | 1.6 | 8.0 | 0.00 | 0.08 | 0.00 | 55 | 1016.6 |
| 20260507182634 | 21 | 334 | 1.6 | 8.0 | 0.00 | 0.05 | 0.00 | 53 | 1016.1 |
| 20260507181734 | 20 | 312 | 4.8 | 12.9 | 0.00 | 0.05 | 0.00 | 55 | 1016.5 |
| 20260507181605 | 20 | 324 | 6.4 | 12.9 | 0.00 | 0.08 | 0.00 | 56 | 1017.0 |
| 20260507180834 | 20 | 320 | 6.4 | 14.5 | 0.00 | 0.05 | 0.00 | 53 | 1016.6 |
| 20260507180004 | 20 | 316 | 6.4 | 14.5 | 0.00 | 0.13 | 0.00 | 54 | 1017.2 |
| 20260507175034 | 21 | 160 | 3.2 | 9.7 | 0.00 | 0.10 | 0.00 | 56 | 1016.9 |
| 20260507174507 | 20 | 152 | 4.8 | 9.7 | 0.00 | 0.13 | 0.00 | 62 | 1017.4 |
| 20260507174134 | 20 | 60 | 3.2 | 8.0 | 0.00 | 0.10 | 0.00 | 61 | 1017.0 |
| 20260507173105 | 20 | 21 | 1.6 | 9.7 | 0.00 | 0.13 | 0.00 | 59 | 1017.6 |
| 20260507171509 | 20 | 146 | 4.8 | 9.7 | 0.00 | 0.13 | 0.00 | 59 | 1017.9 |
| 20260507170534 | 19 | 349 | 3.2 | 9.7 | 0.00 | 0.13 | 0.00 | 60 | 1017.6 |
| 20260507170106 | 18 | 79 | 3.2 | 9.7 | 0.00 | 0.13 | 0.00 | 59 | 1018.2 |
| 20260507165634 | 19 | 350 | 4.8 | 9.7 | 0.00 | 0.13 | 0.00 | 61 | 1017.7 |
| 20260507164607 | 19 | 292 | 4.8 | 11.3 | 0.00 | 0.13 | 0.00 | 62 | 1018.5 |
| 20260507163834 | 19 | 72 | 3.2 | 8.0 | 0.00 | 0.13 | 0.00 | 59 | 1018.0 |
| 20260507163103 | 18 | 132 | 3.2 | 11.3 | 0.00 | 0.13 | 0.00 | 61 | 1018.6 |
| 20260507162934 | 18 | 45 | 3.2 | 12.9 | 0.00 | 0.13 | 0.00 | 59 | 1018.1 |
| 20260507162034 | 18 | 77 | 1.6 | 6.4 | 0.00 | 0.13 | 0.00 | 64 | 1018.0 |
| 20260507161504 | 18 | 119 | 0.0 | 6.4 | 0.00 | 0.13 | 0.00 | 62 | 1018.6 |
| 20260507161134 | 18 | 37 | 3.2 | 9.7 | 0.00 | 0.13 | 0.00 | 61 | 1018.1 |
| 20260507160234 | 19 | 144 | 3.2 | 6.4 | 0.00 | 0.13 | 0.00 | 60 | 1018.2 |
| 20260507160010 | 19 | 350 | 1.6 | 6.4 | 0.00 | 0.13 | 0.00 | 64 | 1018.7 |
| 20260507155334 | 18 | 89 | 3.2 | 8.0 | 0.00 | 0.13 | 0.00 | 62 | 1018.2 |
| 20260507154507 | 18 | 105 | 1.6 | 8.0 | 0.00 | 0.13 | 0.00 | 64 | 1018.8 |
| 20260507154434 | 18 | 76 | 3.2 | 8.0 | 0.00 | 0.13 | 0.00 | 64 | 1018.2 |
| 20260507153534 | 18 | 21 | 3.2 | 9.7 | 0.00 | 0.13 | 0.00 | 70 | 1018.3 |
| 20260507153111 | 17 | 53 | 4.8 | 9.7 | 0.00 | 0.13 | 0.00 | 64 | 1018.8 |
| 20260507152634 | 17 | 347 | 3.2 | 8.0 | 0.00 | 0.13 | 0.00 | 64 | 1018.4 |
| 20260507151504 | 17 | 116 | 1.6 | 9.7 | 0.00 | 0.13 | 0.00 | 66 | 1019.1 |
| 20260507150834 | 17 | 25 | 3.2 | 8.0 | 0.00 | 0.13 | 0.00 | 67 | 1018.7 |
| 20260507150105 | 17 | 48 | 3.2 | 8.0 | 0.00 | 0.13 | 0.00 | 66 | 1019.3 |
| 20260507145034 | 17 | 84 | 4.8 | 12.9 | 0.00 | 0.13 | 0.00 | 68 | 1018.7 |
| 20260507144605 | 17 | 74 | 3.2 | 8.0 | 0.00 | 0.13 | 0.00 | 71 | 1019.4 |
| 20260507144134 | 17 | 41 | 3.2 | 11.3 | 0.00 | 0.13 | 0.00 | 70 | 1018.7 |
| 20260507143234 | 16 | 66 | 1.6 | 9.7 | 0.00 | 0.13 | 0.00 | 74 | 1018.8 |
| 20260507143114 | 16 | 97 | 3.2 | 9.7 | 0.00 | 0.13 | 0.00 | 76 | 1019.3 |
| 20260507142334 | 16 | 72 | 3.2 | 8.0 | 0.00 | 0.13 | 0.00 | 75 | 1018.8 |
| 20260507141503 | 15 | 350 | 3.2 | 8.0 | 0.00 | 0.13 | 0.00 | 76 | 1019.3 |
| 20260507141434 | 15 | 47 | 1.6 | 9.7 | 0.00 | 0.13 | 0.00 | 76 | 1018.7 |
| 20260507140004 | 14 | 321 | 3.2 | 8.0 | 0.00 | 0.15 | 0.00 | 84 | 1019.2 |
| 20260507135634 | 14 | 340 | 4.8 | 8.0 | 0.00 | 0.15 | 0.00 | 86 | 1018.7 |
| 20260507134734 | 13 | 327 | 1.6 | 8.0 | 0.00 | 0.15 | 0.00 | 95 | 1018.7 |
| 20260507134509 | 13 | 331 | 3.2 | 8.0 | 0.00 | 0.15 | 0.00 | 96 | 1019.3 |
| 20260507133834 | 13 | 170 | 1.6 | 3.2 | 0.00 | 0.15 | 0.00 | 97 | 1018.7 |
| 20260507133134 | 12 | 221 | 0.0 | 3.2 | 0.00 | 0.15 | 0.00 | 97 | 1019.1 |
| 20260507132934 | 12 | 164 | 1.6 | 3.2 | 0.00 | 0.15 | 0.00 | 97 | 1018.4 |
| 20260507132034 | 12 | 141 | 3.2 | 8.0 | 0.00 | 0.15 | 0.00 | 97 | 1018.3 |
| 20260507131604 | 12 | 146 | 3.2 | 6.4 | 0.00 | 0.15 | 0.00 | 97 | 1018.9 |
| 20260507130234 | 11 | 174 | 1.6 | 3.2 | 0.00 | 0.15 | 0.00 | 97 | 1017.9 |
| 20260507130005 | 11 | 126 | 1.6 | 3.2 | 0.00 | 0.15 | 0.00 | 97 | 1018.4 |
| 20260507125334 | 10 | 201 | 1.6 | 3.2 | 0.00 | 0.15 | 0.00 | 96 | 1017.7 |
| 20260507124605 | 10 | 220 | 0.0 | 3.2 | 0.00 | 0.15 | 0.00 | 96 | 1018.2 |
| 20260507124434 | 10 | 236 | 0.0 | 3.2 | 0.00 | 0.15 | 0.00 | 96 | 1017.6 |
| 20260507123534 | 9 | 0 | 0.0 | 0.0 | 0.00 | 0.15 | 0.00 | 96 | 1017.4 |
| 20260507123105 | 8 | 350 | 0.0 | 0.0 | 0.00 | 0.15 | 0.00 | 95 | 1017.9 |
| 20260507122634 | 9 | 55 | 0.0 | 1.6 | 0.00 | 0.15 | 0.00 | 95 | 1017.2 |
| 20260507121734 | 9 | 302 | 0.0 | 1.6 | 0.00 | 0.15 | 0.00 | 95 | 1017.1 |
| 20260507121504 | 8 | 75 | 0.0 | 1.6 | 0.00 | 0.15 | 0.00 | 95 | 1017.7 |
| 20260507120834 | 9 | 280 | 0.0 | 1.6 | 0.00 | 0.15 | 0.00 | 95 | 1016.9 |
| 20260507120010 | 8 | 281 | 0.0 | 1.6 | 0.00 | 0.15 | 0.00 | 95 | 1017.2 |
| 20260507115934 | 9 | 327 | 0.0 | 1.6 | 0.00 | 0.15 | 0.00 | 95 | 1016.6 |
| 20260507115034 | 9 | 327 | 0.0 | 1.6 | 0.00 | 0.15 | 0.00 | 95 | 1016.4 |
| 20260507114640 | 8 | 328 | 0.0 | 1.6 | 0.00 | 0.15 | 0.00 | 95 | 1016.9 |
| 20260507114134 | 9 | 43 | 0.0 | 1.6 | 0.00 | 0.15 | 0.00 | 94 | 1016.4 |
| 20260507113234 | 9 | 0 | 0.0 | 0.0 | 0.00 | 0.15 | 0.00 | 94 | 1016.3 |
| 20260507113012 | 9 | 101 | 0.0 | 0.0 | 0.00 | 0.15 | 0.00 | 94 | 1016.9 |
| 20260507112334 | 9 | 0 | 0.0 | 0.0 | 0.00 | 0.15 | 0.00 | 94 | 1016.5 |
| 20260507111506 | 9 | 102 | 0.0 | 0.0 | 0.00 | 0.15 | 0.00 | 94 | 1017.0 |
| 20260507111434 | 9 | 0 | 0.0 | 0.0 | 0.00 | 0.15 | 0.00 | 94 | 1016.5 |
| 20260507110534 | 10 | 0 | 0.0 | 0.0 | 0.00 | 0.15 | 0.00 | 94 | 1016.3 |
| 20260507110004 | 9 | 339 | 0.0 | 0.0 | 0.00 | 0.15 | 0.00 | 94 | 1016.9 |
| 20260507105634 | 10 | 0 | 0.0 | 0.0 | 0.00 | 0.15 | 0.00 | 94 | 1016.3 |
| 20260507104734 | 10 | 0 | 0.0 | 0.0 | 0.00 | 0.15 | 0.00 | 94 | 1016.3 |
| 20260507104606 | 10 | 339 | 0.0 | 0.0 | 0.00 | 0.15 | 0.00 | 94 | 1016.9 |
| 20260507103004 | 10 | 339 | 0.0 | 0.0 | 0.00 | 0.15 | 0.00 | 94 | 1016.9 |
| 20260507102934 | 10 | 0 | 0.0 | 0.0 | 0.00 | 0.15 | 0.00 | 94 | 1016.4 |
| 20260507101614 | 10 | 339 | 0.0 | 0.0 | 0.00 | 0.15 | 0.00 | 94 | 1017.0 |
| 20260507101133 | 10 | 0 | 0.0 | 0.0 | 0.00 | 0.15 | 0.00 | 94 | 1016.4 |
| 20260507100233 | 10 | 0 | 0.0 | 0.0 | 0.00 | 0.15 | 0.00 | 94 | 1016.3 |
| 20260507100105 | 10 | 339 | 0.0 | 0.0 | 0.00 | 0.15 | 0.00 | 94 | 1016.8 |
| 20260507095334 | 10 | 338 | 0.0 | 1.6 | 0.00 | 0.15 | 0.00 | 94 | 1016.4 |
| 20260507094606 | 10 | 339 | 0.0 | 1.6 | 0.00 | 0.15 | 0.00 | 94 | 1016.8 |
| 20260507094434 | 11 | 0 | 0.0 | 0.0 | 0.00 | 0.15 | 0.00 | 94 | 1016.2 |
| 20260507093534 | 11 | 0 | 0.0 | 0.0 | 0.00 | 0.15 | 0.00 | 94 | 1016.0 |
| 20260507093104 | 11 | 339 | 0.0 | 0.0 | 0.00 | 0.15 | 0.00 | 94 | 1016.5 |
| 20260507092634 | 11 | 0 | 0.0 | 0.0 | 0.00 | 0.15 | 0.00 | 94 | 1016.0 |
| 20260507091733 | 11 | 0 | 0.0 | 0.0 | 0.00 | 0.15 | 0.00 | 94 | 1015.8 |
| 20260507091604 | 11 | 339 | 0.0 | 0.0 | 0.00 | 0.15 | 0.00 | 94 | 1016.4 |
| 20260507090833 | 11 | 0 | 0.0 | 0.0 | 0.00 | 0.15 | 0.00 | 94 | 1015.7 |
| 20260507090103 | 11 | 339 | 0.0 | 0.0 | 0.00 | 0.15 | 0.00 | 94 | 1016.1 |
| 20260507085033 | 11 | 0 | 0.0 | 0.0 | 0.00 | 0.15 | 0.00 | 94 | 1015.5 |
| 20260507084506 | 11 | 339 | 0.0 | 0.0 | 0.00 | 0.15 | 0.00 | 94 | 1016.0 |
| 20260507084133 | 12 | 0 | 0.0 | 0.0 | 0.00 | 0.15 | 0.00 | 94 | 1015.5 |
| 20260507083233 | 12 | 338 | 0.0 | 1.6 | 0.00 | 0.15 | 0.00 | 94 | 1015.6 |
| 20260507083008 | 11 | 339 | 0.0 | 3.2 | 0.00 | 0.15 | 0.00 | 94 | 1016.2 |
| 20260507082333 | 12 | 338 | 1.6 | 3.2 | 0.00 | 0.15 | 0.00 | 94 | 1015.8 |
| 20260507081606 | 11 | 339 | 1.6 | 6.4 | 0.00 | 0.15 | 0.00 | 94 | 1016.2 |
| 20260507080534 | 12 | 335 | 3.2 | 4.8 | 0.00 | 0.15 | 0.00 | 95 | 1015.8 |
| 20260507080120 | 11 | 336 | 3.2 | 6.4 | 0.00 | 0.15 | 0.00 | 95 | 1016.4 |
| 20260507075633 | 12 | 325 | 3.2 | 4.8 | 0.00 | 0.15 | 0.00 | 95 | 1015.9 |
| 20260507074733 | 12 | 320 | 3.2 | 4.8 | 0.00 | 0.15 | 0.00 | 94 | 1015.7 |
| 20260507074509 | 11 | 321 | 1.6 | 4.8 | 0.00 | 0.15 | 0.00 | 94 | 1016.2 |